STARLINK-5209, 54061

Orbit data source: Space-Track

STARLINK-5209, 54061 is a payload satellite owned by SpaceX/Seattle (US) in LEO that was launched on Thu, 20 Oct 2022 UTC via an FALCON 9 launch vehicle from the Air Force Eastern Test Range (AFETR). Payload-class satellites include a variety of spacecraft equipped with specific instruments for various scientific and technological missions. These include communications satellites like Starlink; space stations such as the ISS; scientific satellites like the Hubble; Earth observation satellites from companies like Planet Labs, Umbra, and HawkEye 360; GPS; miniature CubeSats for education and research; and military/defense satellites.

Loading next visibility...
Identifier
54061, 2022-136L
Orbit
LEO
Country
Flag of USUS
Related business
Manufacturer
SpaceX/Seattle
Mission
Operational Commercial Communications
Bus & Motor
STARLINK, Unknown motor
Mass
305 kg wet, ~290 kg dry
Launch date (UTC)
2022-10-20 (3 years ago)
Launch vehicle
FALCON 9
Launch site
Air Force Eastern Test Range (AFETR)
Object type
Payload
Rocket body
Debris
Shape & HBR
Box + 1 Pan, 10.1 m
Radar Cross Section
13.562 m², Large (>1 m²)

Expand to show TLE details & history
Last TLE update: 1 day ago

TLE from 1 day ago
0 STARLINK-5209
1 54061U 22136L   25302.95766312 -.00000486  00000-0 -12472-4 0  9991
2 54061  53.2164 175.6124 0001441  97.4579 262.6577 15.08836894167603
Epoch: 2025-10-29T22:59Z
TLE epoch observation values (Epoch: 2025-10-29T22:59:02.093Z)
Latitude
-0.00002°
Longitude
152.33032°
Altitude
540.778 km
Speed
7.593 km/s
True Right ascension
11h 42m 26s
True Declination
0° 00' 00"
Sunlit
Object was in daylight at epoch
Visualization orbit readout
Latitude
Unknown
Longitude
Unknown
Altitude
Unknown
Speed
Unknown
Apparent Right ascension
Unknown
Apparent Declination
Unknown
Sunlit
N/A
Visualization observer readout
Local Sidereal Time
20:38:06
Azimuth
Unknown
Elevation
Unknown
Doppler factor
Unknown
Orbital elements
Apogee altitude
540.995 km
Perigee altitude
539.001 km
Semi-major axis
6,918.135 km
Eccentricity
0.00014
Inclination
53.2164°
RAAN
175.6124°
Arg. of periapsis
97.4579°
True anomaly
262.64132°
Mean anomaly
262.6577°
Eccentric anomaly
262.64951°
Mean motion
3.7719 °/min
Orbital period
95.44 mins
BSTAR
-0.000012472
Loading maneuver chart data...
Computing Atmospheric mass density...
Loading historical data...
Loading historical data...
Loading historical data...
Loading historical data...
Loading historical data...
Loading historical data...
Loading historical data...

Documentation

Showing up to 5 results
|